Location: Pedholt
(56.0260°N, 10.2097°E)
Time: 06:18:49
(UTC+00:00)

Cosmos 2173 Rocket - Pass Details

Date: 14 July 2020
Orbit: 944 x 1002 km, 83.0° (Epoch: 07 August)

Event Time Altitude Azimuth Distance (km) Brightness Sun altitude
Exits shadow 01:43:02 - 213° (SSW) 2,902 5.8 -7.0°
Reaches altitude 10° 01:43:25 10° 214° (SW) 2,762 5.7 -7.0°
Maximum altitude 01:49:35 51° 290° (WNW) 1,231 4.5 -6.5°
Drops below altitude 10° 01:55:43 10° 6° (N) 2,745 7.5 -6.1°
Sets 01:58:19 0° 11° (NNE) 3,688 8.4 -5.9°
